Location: Ch�teau-Arnoux
(44.0814°N, 6.0027°E)
Time: 14:05:10
(UTC+00:00)

Cosmos 2322 Rocket - Pass Details

Date: 15 November 2019
Orbit: 833 x 851 km, 71.0° (Epoch: 05 December)

Event Time Altitude Azimuth Distance (km) Brightness Sun altitude
Exits shadow 03:47:19 - 356° (N) 2,622 4.7 -29.3°
Reaches altitude 10° 03:47:53 10° 360° (N) 2,467 4.6 -29.2°
Maximum altitude 03:52:05 21° 48° (NE) 1,823 4.4 -28.4°
Drops below altitude 10° 03:56:16 10° 96° (E) 2,467 5.6 -27.7°
Sets 03:59:20 0° 112° (ESE) 3,402 6.4 -27.1°
